West Tisbury, MA

6:58 PM EST on February 14, 2016 (GMT -0500)
Martha's Vineyard

Weather History for KMVY - January, 2013

Change the Weather History Date:

Wednesday, January 16, 2013

  Actual Average Record
Temperature  
Mean Temperature 38 °F -  
Max Temperature 41 °F 36 °F 55 °F (1950)
Min Temperature 35 °F 19 °F -5 °F (2004)
Degree Days  
Heating Degree Days 27    
Moisture  
Dew Point 38 °F    
Average Humidity 97    
Maximum Humidity 100    
Minimum Humidity 79    
Precipitation  
Precipitation 0.54 in - - ()
Sea Level Pressure  
Sea Level Pressure 29.96 in    
Wind  
Wind Speed 7 mph (North)    
Max Wind Speed 16 mph    
Max Gust Speed 22 mph    
Visibility 6 miles    
Events Rain    
Averages and records for this station are not official NWS values.
T = Trace of Precipitation, MM = Missing Value Source: NWS Daily Summary

Daily Weather History Graph

Daily Weather History Graph

Search for Another Location

Airport or City:

Trip Planner

Search our weather history database for the weather conditions in past years. The results will help you decide how hot, cold, wet, or windy it might be!

Date:

Astronomy

Jan. 16, 2013 Rise Set
Actual Time 7:05 AM EST 4:39 PM EST
Civil Twilight 6:35 AM EST 5:09 PM EST
Nautical Twilight 6:01 AM EST 5:43 PM EST
Astronomical Twilight 5:28 AM EST 6:16 PM EST
Moon 9:36 AM EST (1/16) 10:32 PM EST (1/16)
Length of Visible Light 10h 34m
Length of Day
9h 33m
Waxing Crescent, 28% of the Moon is Illuminated
Jan 16
Waxing Crescent
Jan 18
First Quarter
Jan 26
Full
Feb 3
Last Quarter
Feb 10
New

Hourly Weather History & Observations

Time (EST) Temp. Windchill Dew Point Humidity Pressure Visibility Wind Dir Wind Speed Gust Speed Precip Events Conditions
12:53 AM 39.0 °F 33.4 °F 33.1 °F 79% 30.21 in 10.0 mi NNE 8.1 mph - 0.00 in Rain Light Rain
1:31 AM 37.4 °F 32.8 °F 35.6 °F 93% 30.21 in 5.0 mi North 5.8 mph - 0.02 in Rain Rain
1:53 AM 37.9 °F 35.5 °F 36.0 °F 93% 30.22 in 9.0 mi North 3.5 mph - 0.05 in Rain Light Rain
2:13 AM 37.4 °F 32.8 °F 35.6 °F 93% 30.21 in 9.0 mi NNE 5.8 mph - 0.02 in Rain Light Rain
3:53 AM 37.0 °F 31.6 °F 36.0 °F 96% 30.14 in 10.0 mi NNE 6.9 mph - 0.03 in Rain Light Rain
4:23 AM 37.4 °F 31.4 °F 35.6 °F 93% 30.10 in 9.0 mi NE 8.1 mph - 0.01 in Rain Light Rain
4:53 AM 37.9 °F 32.1 °F 37.0 °F 97% 30.09 in 8.0 mi NE 8.1 mph - 0.04 in Rain Rain
5:24 AM 37.4 °F 32.8 °F 37.4 °F 100% 30.12 in 9.0 mi North 5.8 mph - 0.02 in Rain Light Rain
5:53 AM 37.9 °F 31.5 °F 37.0 °F 97% 30.10 in 5.0 mi NNE 9.2 mph - 0.05 in Rain Rain
6:20 AM 37.4 °F 33.8 °F 37.4 °F 100% 30.07 in 6.0 mi NE 4.6 mph - 0.04 in Rain Rain
6:31 AM 37.4 °F 31.4 °F 37.4 °F 100% 30.08 in 5.0 mi NNE 8.1 mph - 0.05 in Rain Rain
7:53 AM 39.9 °F - 39.0 °F 97% 30.09 in 5.0 mi Calm Calm - 0.11 in Rain Rain
8:53 AM 41.0 °F 34.7 °F 39.9 °F 96% 30.06 in 7.0 mi ESE 10.4 mph - 0.12 in Rain Light Rain
9:53 AM 41.0 °F 33.9 °F 39.9 °F 96% 29.99 in 10.0 mi East 12.7 mph - 0.10 in Rain Light Rain
10:53 AM 41.0 °F 32.8 °F 39.0 °F 93% 29.89 in 10.0 mi East 16.1 mph 21.9 mph 0.00 in   Overcast
11:53 AM 39.9 °F 32.9 °F 39.0 °F 97% 29.88 in 4.0 mi ESE 11.5 mph - 0.01 in Rain Light Rain
12:53 PM 41.0 °F 35.8 °F 39.9 °F 96% 29.86 in 4.0 mi East 8.1 mph - 0.00 in Rain Light Rain
1:53 PM 41.0 °F 38.0 °F 39.9 °F 96% 29.86 in 9.0 mi North 4.6 mph - 0.01 in Rain Light Rain
2:53 PM 39.9 °F 35.1 °F 39.9 °F 100% 29.77 in 8.0 mi East 6.9 mph - 0.01 in   Overcast
3:53 PM 41.0 °F 35.8 °F 41.0 °F 100% 29.78 in 9.0 mi North 8.1 mph - N/A   Overcast
4:53 PM 37.9 °F 31.5 °F 37.9 °F 100% 29.84 in 2.5 mi NW 9.2 mph - N/A   Overcast
5:01 PM 37.4 °F 32.8 °F 37.4 °F 100% 29.84 in 3.0 mi NW 5.8 mph - N/A   Overcast
5:41 PM 37.4 °F 32.1 °F 37.4 °F 100% 29.83 in 2.5 mi NW 6.9 mph - N/A   Overcast
6:20 PM 37.4 °F 32.8 °F 37.4 °F 100% 29.85 in 2.0 mi NNW 5.8 mph - N/A   Overcast
6:41 PM 37.4 °F 33.8 °F 35.6 °F 93% 29.85 in 1.2 mi NW 4.6 mph - N/A   Overcast
6:53 PM 37.0 °F - 37.0 °F 100% 29.86 in 1.0 mi Calm Calm - N/A   Overcast
7:08 PM 35.6 °F - 35.6 °F 100% 29.85 in 0.8 mi Calm Calm - N/A   Overcast
7:53 PM 37.0 °F 34.5 °F 37.0 °F 100% 29.85 in 1.0 mi West 3.5 mph - N/A   Overcast
8:26 PM 37.4 °F 34.9 °F 37.4 °F 100% 29.85 in 3.0 mi WSW 3.5 mph - N/A   Overcast
8:53 PM 37.0 °F - 37.0 °F 100% 29.85 in 5.0 mi Calm Calm - N/A   Overcast
9:53 PM 37.9 °F 35.5 °F 37.9 °F 100% 29.86 in 9.0 mi West 3.5 mph - 0.01 in   Overcast
10:23 PM 37.4 °F 32.8 °F 37.4 °F 100% 29.85 in 10.0 mi West 5.8 mph - N/A   Overcast
10:53 PM 39.0 °F 35.7 °F 37.9 °F 96% 29.87 in 10.0 mi WSW 4.6 mph - N/A   Overcast
11:32 PM 39.2 °F 33.6 °F 37.4 °F 93% 29.87 in 10.0 mi West 8.1 mph - N/A   Mostly Cloudy
11:53 PM 39.0 °F 33.4 °F 37.0 °F 93% 29.87 in 10.0 mi WSW 8.1 mph - N/A   Overcast